Location: Unspecified
(0.0000°N, 0.0000°E)
Time: 19:35:00
(UTC+00:00)

CYGFM04 - Visible Passes

Search period start: 14 January 2025 00:00
Search period end: 24 January 2025 00:00
Orbit: 452 x 463 km, 34.9° (Epoch: 14 January)

Date Brightness Start Highest point End Pass type
(mag) Time Alt. Az. Time Alt. Az. Time Alt. Az.
14 Jan ? 05:18:08 15° NW 05:21:01 52° NE 05:24:36 10° ESE visible
14 Jan ? 18:39:31 10° WNW 18:41:33 14° NW 18:43:36 10° N visible
15 Jan ? 04:43:41 38° N 04:44:20 43° NE 04:47:49 10° ESE visible
16 Jan ? 04:09:11 24° E 04:09:11 24° E 04:11:00 10° ESE visible
17 Jan ? 05:08:21 18° WSW 05:09:42 22° SW 05:12:37 10° SSE visible
18 Jan ? 04:33:44 24° SSW 04:33:44 24° SSW 04:36:03 10° SSE visible
19 Jan ? 03:59:03 12° SSE 03:59:03 12° SSE 03:59:24 10° SSE visible
